| time (UTC) | temp C | wind direction | speed KPH | gust KPH | rain 1hr cm | rain 24hr cm | rain mn cm | humidity % | barometer mb |
| 20260902141705 | 15 | 204 | 0.0 | 3.2 | 0.00 | 0.00 | 0.00 | 85 | 1005.4 |
| 20260902141205 | 15 | 204 | 0.0 | 3.2 | 0.00 | 0.00 | 0.00 | 85 | 1005.4 |
| 20260902140204 | 15 | 212 | 0.0 | 3.2 | 0.00 | 0.00 | 0.00 | 85 | 1005.4 |
| 20260902135705 | 15 | 208 | 0.0 | 1.6 | 0.00 | 0.00 | 0.00 | 85 | 1005.4 |
| 20260902135205 | 15 | 208 | 0.0 | 3.2 | 0.00 | 0.00 | 0.00 | 85 | 1005.4 |
| 20260902134705 | 15 | 208 | 0.0 | 3.2 | 0.00 | 0.00 | 0.00 | 85 | 1005.4 |
| 20260902133705 | 15 | 208 | 0.0 | 3.2 | 0.00 | 0.00 | 0.00 | 85 | 1005.4 |
| 20260902131705 | 15 | 125 | 0.0 | 3.2 | 0.00 | 0.00 | 0.00 | 85 | 1005.5 |
| 20260902131205 | 15 | 75 | 0.0 | 3.2 | 0.00 | 0.00 | 0.00 | 85 | 1005.6 |
| 20260902130205 | 15 | 109 | 0.0 | 3.2 | 0.00 | 0.00 | 0.00 | 86 | 1005.7 |
| 20260902125205 | 15 | 181 | 0.0 | 3.2 | 0.00 | 0.00 | 0.00 | 86 | 1005.7 |
| 20260902123205 | 15 | 248 | 0.0 | 3.2 | 0.00 | 0.00 | 0.00 | 87 | 1005.8 |
| 20260902122204 | 15 | 171 | 0.0 | 3.2 | 0.00 | 0.00 | 0.00 | 88 | 1005.8 |
| 20260902121705 | 15 | 171 | 0.0 | 1.6 | 0.00 | 0.00 | 0.00 | 88 | 1005.8 |
| 20260902121204 | 15 | 320 | 0.0 | 1.6 | 0.00 | 0.00 | 0.00 | 88 | 1005.9 |
| 20260902115705 | 15 | 85 | 0.0 | 3.2 | 0.00 | 0.00 | 0.00 | 90 | 1006.0 |
| 20260902112204 | 15 | 64 | 0.0 | 3.2 | 0.00 | 0.00 | 0.00 | 90 | 1006.2 |
| 20260902111705 | 15 | 131 | 0.0 | 3.2 | 0.00 | 0.00 | 0.00 | 90 | 1006.2 |
| 20260902110705 | 15 | 117 | 0.0 | 3.2 | 0.00 | 0.00 | 0.00 | 90 | 1006.2 |
| 20260902110205 | 15 | 117 | 0.0 | 3.2 | 0.00 | 0.00 | 0.00 | 90 | 1006.4 |
| 20260902105705 | 15 | 123 | 0.0 | 1.6 | 0.00 | 0.00 | 0.00 | 90 | 1006.5 |
| 20260902105205 | 15 | 123 | 0.0 | 3.2 | 0.00 | 0.00 | 0.00 | 90 | 1006.4 |
| 20260902104205 | 15 | 106 | 0.0 | 3.2 | 0.00 | 0.00 | 0.00 | 90 | 1006.5 |
| 20260902103705 | 15 | 79 | 0.0 | 1.6 | 0.00 | 0.00 | 0.00 | 90 | 1006.5 |
| 20260902103205 | 15 | 140 | 0.0 | 3.2 | 0.00 | 0.00 | 0.00 | 90 | 1006.4 |
| 20260902102704 | 15 | 154 | 0.0 | 3.2 | 0.00 | 0.00 | 0.00 | 90 | 1006.6 |
| 20260902101205 | 15 | 154 | 0.0 | 1.6 | 0.00 | 0.00 | 0.00 | 90 | 1006.7 |
| 20260902100705 | 15 | 153 | 0.0 | 3.2 | 0.00 | 0.00 | 0.00 | 90 | 1006.7 |
| 20260902095205 | 15 | 155 | 0.0 | 3.2 | 0.00 | 0.00 | 0.00 | 90 | 1006.7 |
| 20260902094204 | 15 | 162 | 0.0 | 3.2 | 0.00 | 0.00 | 0.00 | 89 | 1006.7 |
| 20260902093704 | 15 | 162 | 0.0 | 3.2 | 0.00 | 0.00 | 0.00 | 88 | 1006.7 |
| 20260902093204 | 15 | 162 | 0.0 | 3.2 | 0.00 | 0.00 | 0.00 | 87 | 1006.7 |
| 20260902085205 | 15 | 157 | 0.0 | 3.2 | 0.00 | 0.00 | 0.00 | 86 | 1007.2 |
| 20260902084205 | 15 | 156 | 1.6 | 3.2 | 0.00 | 0.00 | 0.00 | 86 | 1007.3 |
| 20260902081705 | 15 | 215 | 0.0 | 3.2 | 0.00 | 0.00 | 0.00 | 85 | 1007.4 |
| 20260902075704 | 15 | 310 | 0.0 | 3.2 | 0.00 | 0.00 | 0.00 | 86 | 1007.4 |
| 20260902074705 | 15 | 141 | 0.0 | 1.6 | 0.00 | 0.00 | 0.00 | 86 | 1007.5 |
| 20260902073704 | 15 | 152 | 0.0 | 3.2 | 0.00 | 0.00 | 0.00 | 86 | 1007.6 |
| 20260902072704 | 15 | 158 | 1.6 | 3.2 | 0.00 | 0.00 | 0.00 | 86 | 1007.5 |
| 20260902071705 | 15 | 165 | 1.6 | 3.2 | 0.00 | 0.00 | 0.00 | 86 | 1007.4 |
| 20260902071205 | 15 | 162 | 1.6 | 3.2 | 0.00 | 0.00 | 0.00 | 86 | 1007.4 |
| 20260902070705 | 15 | 163 | 0.0 | 3.2 | 0.00 | 0.00 | 0.00 | 87 | 1007.3 |
| 20260902070205 | 15 | 162 | 1.6 | 3.2 | 0.00 | 0.00 | 0.00 | 86 | 1007.4 |
| 20260902065704 | 15 | 154 | 1.6 | 3.2 | 0.00 | 0.00 | 0.00 | 85 | 1007.3 |
| 20260902062704 | 15 | 148 | 0.0 | 3.2 | 0.00 | 0.00 | 0.00 | 87 | 1007.3 |
| 20260902061204 | 15 | 93 | 1.6 | 3.2 | 0.00 | 0.00 | 0.00 | 87 | 1007.2 |
| 20260902054204 | 15 | 159 | 1.6 | 3.2 | 0.00 | 0.00 | 0.00 | 87 | 1007.4 |
| 20260902053704 | 15 | 217 | 0.0 | 3.2 | 0.00 | 0.00 | 0.00 | 87 | 1007.5 |
| 20260902051705 | 15 | 167 | 0.0 | 3.2 | 0.00 | 0.00 | 0.00 | 87 | 1007.6 |
| 20260902050705 | 15 | 173 | 1.6 | 3.2 | 0.00 | 0.00 | 0.00 | 88 | 1007.7 |
| 20260902045705 | 15 | 163 | 0.0 | 4.8 | 0.00 | 0.00 | 0.00 | 88 | 1007.8 |
| 20260902045204 | 15 | 105 | 0.0 | 3.2 | 0.00 | 0.00 | 0.00 | 88 | 1007.8 |
| 20260902044205 | 15 | 167 | 0.0 | 3.2 | 0.00 | 0.00 | 0.00 | 88 | 1007.8 |
| 20260902043205 | 15 | 143 | 1.6 | 1.6 | 0.00 | 0.00 | 0.00 | 87 | 1007.8 |
| 20260902042704 | 15 | 148 | 0.0 | 3.2 | 0.00 | 0.00 | 0.00 | 87 | 1007.8 |
| 20260902040204 | 16 | 120 | 1.6 | 3.2 | 0.00 | 0.00 | 0.00 | 86 | 1007.7 |
| 20260902035204 | 16 | 134 | 0.0 | 3.2 | 0.00 | 0.00 | 0.00 | 85 | 1007.7 |
| 20260902033705 | 16 | 121 | 0.0 | 3.2 | 0.00 | 0.00 | 0.00 | 85 | 1007.6 |
| 20260902031704 | 16 | 113 | 1.6 | 3.2 | 0.00 | 0.00 | 0.00 | 85 | 1007.5 |
| 20260902031204 | 16 | 150 | 1.6 | 3.2 | 0.00 | 0.00 | 0.00 | 85 | 1007.4 |
| 20260902030704 | 16 | 155 | 0.0 | 3.2 | 0.00 | 0.00 | 0.00 | 85 | 1007.4 |
| 20260902025704 | 16 | 157 | 0.0 | 3.2 | 0.00 | 0.00 | 0.00 | 85 | 1007.3 |
| 20260902024204 | 16 | 174 | 0.0 | 3.2 | 0.00 | 0.00 | 0.00 | 84 | 1007.3 |
| 20260902021705 | 17 | 111 | 0.0 | 3.2 | 0.00 | 0.00 | 0.00 | 82 | 1007.3 |
| 20260902021205 | 17 | 175 | 1.6 | 3.2 | 0.00 | 0.00 | 0.00 | 82 | 1007.4 |
| 20260902020704 | 17 | 135 | 1.6 | 3.2 | 0.00 | 0.00 | 0.00 | 82 | 1007.3 |
| 20260902015205 | 17 | 149 | 1.6 | 3.2 | 0.00 | 0.00 | 0.00 | 81 | 1007.4 |
| 20260902014705 | 17 | 160 | 1.6 | 4.8 | 0.00 | 0.00 | 0.00 | 81 | 1007.3 |
| 20260902014205 | 17 | 152 | 1.6 | 4.8 | 0.00 | 0.00 | 0.00 | 81 | 1007.3 |
| 20260902013204 | 17 | 155 | 1.6 | 4.8 | 0.00 | 0.00 | 0.00 | 80 | 1007.3 |
| 20260902011705 | 17 | 161 | 1.6 | 3.2 | 0.00 | 0.00 | 0.00 | 79 | 1007.3 |
| 20260902005705 | 18 | 155 | 0.0 | 3.2 | 0.00 | 0.00 | 0.00 | 79 | 1007.3 |
| 20260902005204 | 17 | 122 | 1.6 | 3.2 | 0.00 | 0.00 | 0.00 | 79 | 1007.3 |
| 20260902004205 | 17 | 152 | 0.0 | 3.2 | 0.00 | 0.00 | 0.00 | 78 | 1007.3 |
| 20260902002705 | 18 | 149 | 1.6 | 4.8 | 0.00 | 0.00 | 0.00 | 77 | 1007.3 |
| 20260902001704 | 18 | 156 | 1.6 | 4.8 | 0.00 | 0.00 | 0.00 | 77 | 1007.3 |
| 20260902001205 | 18 | 181 | 1.6 | 3.2 | 0.00 | 0.00 | 0.00 | 77 | 1007.3 |
| 20260902000204 | 18 | 166 | 1.6 | 4.8 | 0.00 | 0.00 | 0.00 | 76 | 1007.3 |
| 20260901235705 | 18 | 193 | 1.6 | 4.8 | 0.00 | 0.00 | 0.00 | 76 | 1007.3 |
| 20260901235204 | 18 | 165 | 1.6 | 4.8 | 0.00 | 0.00 | 0.00 | 75 | 1007.3 |
| 20260901234705 | 18 | 163 | 1.6 | 3.2 | 0.00 | 0.00 | 0.00 | 74 | 1007.3 |
| 20260901234205 | 18 | 164 | 1.6 | 4.8 | 0.00 | 0.00 | 0.00 | 74 | 1007.4 |
| 20260901232705 | 18 | 147 | 1.6 | 4.8 | 0.00 | 0.00 | 0.00 | 73 | 1007.3 |
| 20260901231705 | 19 | 156 | 1.6 | 4.8 | 0.00 | 0.00 | 0.00 | 72 | 1007.3 |
| 20260901230704 | 19 | 177 | 1.6 | 3.2 | 0.00 | 0.00 | 0.00 | 73 | 1007.3 |
| 20260901230204 | 19 | 172 | 1.6 | 4.8 | 0.00 | 0.00 | 0.00 | 73 | 1007.3 |
| 20260901225705 | 19 | 155 | 1.6 | 3.2 | 0.00 | 0.00 | 0.00 | 72 | 1007.3 |
| 20260901223205 | 19 | 144 | 1.6 | 3.2 | 0.00 | 0.00 | 0.00 | 74 | 1007.3 |
| 20260901222704 | 19 | 156 | 1.6 | 4.8 | 0.00 | 0.00 | 0.00 | 73 | 1007.3 |
| 20260901221705 | 19 | 175 | 1.6 | 3.2 | 0.00 | 0.00 | 0.00 | 72 | 1007.3 |
| 20260901221205 | 20 | 153 | 1.6 | 3.2 | 0.00 | 0.00 | 0.00 | 73 | 1007.4 |
| 20260901220705 | 19 | 137 | 1.6 | 3.2 | 0.00 | 0.00 | 0.00 | 72 | 1007.5 |
| 20260901215204 | 19 | 180 | 0.0 | 3.2 | 0.00 | 0.00 | 0.00 | 72 | 1007.6 |
| 20260901214205 | 20 | 162 | 1.6 | 4.8 | 0.00 | 0.00 | 0.00 | 72 | 1007.5 |
| 20260901213705 | 20 | 167 | 1.6 | 3.2 | 0.00 | 0.00 | 0.00 | 72 | 1007.5 |
| 20260901212704 | 19 | 144 | 1.6 | 3.2 | 0.00 | 0.00 | 0.00 | 74 | 1007.6 |
| 20260901211704 | 20 | 144 | 1.6 | 3.2 | 0.00 | 0.00 | 0.00 | 73 | 1007.7 |
| 20260901210204 | 19 | 232 | 1.6 | 3.2 | 0.00 | 0.00 | 0.00 | 73 | 1007.8 |
| 20260901205705 | 19 | 162 | 1.6 | 4.8 | 0.00 | 0.00 | 0.00 | 72 | 1007.8 |
| 20260901205204 | 20 | 159 | 1.6 | 4.8 | 0.00 | 0.00 | 0.00 | 71 | 1007.8 |
| 20260901204204 | 21 | 193 | 1.6 | 3.2 | 0.00 | 0.00 | 0.00 | 69 | 1007.7 |
| 20260901203704 | 21 | 203 | 1.6 | 4.8 | 0.00 | 0.00 | 0.00 | 69 | 1007.8 |
| 20260901203205 | 20 | 172 | 1.6 | 4.8 | 0.00 | 0.00 | 0.00 | 70 | 1007.8 |
| 20260901202705 | 20 | 150 | 1.6 | 4.8 | 0.00 | 0.00 | 0.00 | 72 | 1007.8 |
| 20260901202205 | 20 | 160 | 1.6 | 3.2 | 0.00 | 0.00 | 0.00 | 72 | 1007.9 |
| 20260901201705 | 20 | 154 | 1.6 | 4.8 | 0.00 | 0.00 | 0.00 | 73 | 1007.9 |
| 20260901200705 | 19 | 140 | 1.6 | 4.8 | 0.00 | 0.00 | 0.00 | 73 | 1007.9 |
| 20260901200204 | 19 | 259 | 1.6 | 3.2 | 0.00 | 0.00 | 0.00 | 74 | 1007.8 |
| 20260901195705 | 19 | 191 | 1.6 | 4.8 | 0.00 | 0.00 | 0.00 | 75 | 1007.9 |
| 20260901193705 | 20 | 157 | 1.6 | 4.8 | 0.00 | 0.00 | 0.00 | 73 | 1008.0 |
| 20260901193204 | 20 | 151 | 1.6 | 3.2 | 0.00 | 0.00 | 0.00 | 74 | 1008.0 |
| 20260901192705 | 20 | 171 | 1.6 | 4.8 | 0.00 | 0.00 | 0.00 | 73 | 1008.0 |
| 20260901191204 | 19 | 154 | 1.6 | 4.8 | 0.00 | 0.00 | 0.00 | 75 | 1008.1 |
| 20260901190705 | 18 | 157 | 1.6 | 3.2 | 0.00 | 0.00 | 0.00 | 76 | 1008.2 |
| 20260901185705 | 18 | 170 | 1.6 | 3.2 | 0.00 | 0.00 | 0.00 | 77 | 1008.2 |
| 20260901184705 | 17 | 180 | 1.6 | 3.2 | 0.00 | 0.00 | 0.00 | 78 | 1008.1 |
| 20260901184205 | 17 | 154 | 1.6 | 4.8 | 0.00 | 0.00 | 0.00 | 80 | 1008.2 |
| 20260901183204 | 17 | 146 | 0.0 | 1.6 | 0.00 | 0.00 | 0.00 | 80 | 1008.2 |
| 20260901181204 | 17 | 154 | 0.0 | 3.2 | 0.00 | 0.00 | 0.00 | 83 | 1008.2 |
| 20260901180704 | 17 | 180 | 0.0 | 3.2 | 0.00 | 0.00 | 0.00 | 83 | 1008.2 |
| 20260901174705 | 16 | 180 | 0.0 | 3.2 | 0.00 | 0.00 | 0.00 | 85 | 1008.1 |
| 20260901174205 | 16 | 115 | 0.0 | 3.2 | 0.00 | 0.00 | 0.00 | 86 | 1008.2 |
| 20260901173705 | 16 | 143 | 0.0 | 3.2 | 0.00 | 0.00 | 0.00 | 86 | 1008.2 |
| 20260901173204 | 16 | 155 | 1.6 | 3.2 | 0.00 | 0.00 | 0.00 | 87 | 1008.1 |
| 20260901171204 | 15 | 157 | 1.6 | 3.2 | 0.00 | 0.00 | 0.00 | 87 | 1008.2 |
| 20260901170705 | 15 | 122 | 1.6 | 3.2 | 0.00 | 0.00 | 0.00 | 88 | 1008.1 |
| 20260901170205 | 15 | 140 | 1.6 | 3.2 | 0.00 | 0.00 | 0.00 | 87 | 1008.1 |
| 20260901164205 | 16 | 150 | 1.6 | 3.2 | 0.00 | 0.00 | 0.00 | 87 | 1008.1 |
| 20260901163704 | 16 | 150 | 0.0 | 0.0 | 0.00 | 0.00 | 0.00 | 87 | 1008.1 |
| 20260901163204 | 15 | 147 | 0.0 | 0.0 | 0.00 | 0.00 | 0.00 | 87 | 1008.1 |
| 20260901161704 | 15 | 178 | 0.0 | 0.0 | 0.00 | 0.00 | 0.00 | 88 | 1008.1 |
| 20260901161205 | 15 | 168 | 0.0 | 0.0 | 0.00 | 0.00 | 0.00 | 88 | 1008.1 |
| 20260901155704 | 15 | 165 | 0.0 | 0.0 | 0.00 | 0.00 | 0.00 | 89 | 1008.1 |
| 20260901155205 | 15 | 162 | 0.0 | 0.0 | 0.00 | 0.00 | 0.00 | 89 | 1008.2 |
| 20260901154204 | 15 | 164 | 0.0 | 0.0 | 0.00 | 0.00 | 0.00 | 90 | 1008.2 |
| 20260901153705 | 15 | 160 | 0.0 | 0.0 | 0.00 | 0.00 | 0.00 | 90 | 1008.3 |
| 20260901152704 | 15 | 165 | 0.0 | 0.0 | 0.00 | 0.00 | 0.00 | 90 | 1008.3 |
| 20260901152205 | 15 | 165 | 0.0 | 0.0 | 0.00 | 0.00 | 0.00 | 90 | 1008.3 |
| 20260901151705 | 15 | 121 | 0.0 | 0.0 | 0.00 | 0.00 | 0.00 | 90 | 1008.3 |
| 20260901151204 | 15 | 121 | 0.0 | 0.0 | 0.00 | 0.00 | 0.00 | 90 | 1008.3 |
| 20260901150204 | 15 | 110 | 0.0 | 0.0 | 0.00 | 0.00 | 0.00 | 91 | 1008.2 |
| 20260901145704 | 14 | 110 | 0.0 | 0.0 | 0.00 | 0.00 | 0.00 | 91 | 1008.2 |
| 20260901144704 | 14 | 110 | 0.0 | 0.0 | 0.00 | 0.00 | 0.00 | 91 | 1008.1 |
| 20260901142204 | 13 | 110 | 0.0 | 0.0 | 0.00 | 0.00 | 0.00 | 91 | 1008.1 |